Weather History for KCIN - December, 2011

Change the Weather History Date:

Wednesday, December 7, 2011

  Actual Average Record
Temperature  
Mean Temperature 16 °F -  
Max Temperature 24 °F 32 °F 64 °F (1984)
Min Temperature 8 °F 16 °F -18 °F (1972)
Degree Days  
Heating Degree Days 49    
Moisture  
Dew Point 12 °F    
Average Humidity 76    
Maximum Humidity 86    
Minimum Humidity 68    
Precipitation  
Precipitation 0.00 in - - ()
Sea Level Pressure  
Sea Level Pressure 30.06 in    
Wind  
Wind Speed 13 mph (WSW)    
Max Wind Speed 22 mph    
Max Gust Speed 24 mph    
Visibility 10 miles    
Events      
Averages and records for this station are not official NWS values.
T = Trace of Precipitation, MM = Missing Value Source: NWS Daily Summary

Daily Weather History Graph

Daily Weather History Graph

Search for Another Location

Airport or City:

Trip Planner

Search our weather history database for the weather conditions in past years. The results will help you decide how hot, cold, wet, or windy it might be!

Date:

Astronomy

Dec. 07, 2011 Rise Set
Actual Time 7:33 AM CST 4:47 PM CST
Civil Twilight 7:02 AM CST 5:18 PM CST
Nautical Twilight 6:27 AM CST 5:53 PM CST
Astronomical Twilight 5:53 AM CST 6:27 PM CST
Moon 2:49 PM CST (12/7) 4:48 AM CST (12/7)
Length of Visible Light 10h 16m
Length of Day
9h 14m
Waxing Gibbous, 92% of the Moon is Illuminated
Dec 7
Waxing Gibbous
Dec 10
Full
Dec 17
Last Quarter
Dec 24
New
Jan 1
First Quarter

Hourly Weather History & Observations

Time (CST) Temp. Windchill Dew Point Humidity Pressure Visibility Wind Dir Wind Speed Gust Speed Precip Events Conditions
12:15 AM 8.6 °F -8.9 °F 3.2 °F 79% 30.12 in 10.0 mi SSW 16.1 mph - N/A   Clear
12:35 AM 8.6 °F -9.5 °F 3.2 °F 79% 30.10 in 10.0 mi SSW 17.3 mph - N/A   Clear
12:55 AM 10.4 °F -6.6 °F 3.2 °F 73% 30.10 in 10.0 mi SSW 16.1 mph - N/A   Clear
1:15 AM 10.4 °F -6.6 °F 5.0 °F 79% 30.10 in 10.0 mi SW 16.1 mph - N/A   Clear
1:35 AM 10.4 °F -6.6 °F 5.0 °F 79% 30.09 in 10.0 mi SSW 16.1 mph - N/A   Clear
1:55 AM 12.2 °F -5.8 °F 6.8 °F 79% 30.06 in 10.0 mi SSW 19.6 mph - N/A   Mostly Cloudy
2:15 AM 15.8 °F -1.5 °F 8.6 °F 73% 30.06 in 10.0 mi SW 20.7 mph - N/A   Overcast
2:35 AM 17.6 °F 0.5 °F 10.4 °F 73% 30.05 in 10.0 mi SW 21.9 mph - N/A   Overcast
2:55 AM 15.8 °F -0.2 °F 10.4 °F 79% 30.04 in 10.0 mi SW 17.3 mph - N/A   Mostly Cloudy
3:15 AM 15.8 °F -1.1 °F 10.4 °F 79% 30.04 in 10.0 mi SW 19.6 mph 24.2 mph N/A   Scattered Clouds
3:35 AM 15.8 °F -1.5 °F 10.4 °F 79% 30.02 in 10.0 mi SW 20.7 mph - N/A   Mostly Cloudy
4:15 AM 15.8 °F -1.1 °F 10.4 °F 79% 30.01 in 10.0 mi SW 19.6 mph - N/A   Clear
4:35 AM 15.8 °F 0.3 °F 10.4 °F 79% 30.00 in 10.0 mi SW 16.1 mph - N/A   Clear
4:55 AM 15.8 °F -0.6 °F 10.4 °F 79% 30.00 in 10.0 mi SW 18.4 mph - N/A   Clear
5:15 AM 15.8 °F 2.1 °F 10.4 °F 79% 30.00 in 10.0 mi SW 12.7 mph - N/A   Clear
5:35 AM 15.8 °F 3.4 °F 10.4 °F 79% 30.00 in 10.0 mi SW 10.4 mph - N/A   Clear
5:55 AM 15.8 °F 2.7 °F 10.4 °F 79% 30.00 in 10.0 mi SW 11.5 mph - N/A   Clear
6:15 AM 15.8 °F 4.2 °F 10.4 °F 79% 30.01 in 10.0 mi WSW 9.2 mph - N/A   Clear
6:35 AM 15.8 °F 5.1 °F 10.4 °F 79% 30.01 in 10.0 mi SW 8.1 mph - N/A   Clear
6:55 AM 17.6 °F 5.7 °F 10.4 °F 73% 30.01 in 10.0 mi WSW 10.4 mph - N/A   Clear
7:15 AM 17.6 °F 1.7 °F 10.4 °F 73% 30.02 in 10.0 mi WSW 18.4 mph - N/A   Clear
7:35 AM 17.6 °F 5.7 °F 10.4 °F 73% 30.02 in 10.0 mi WSW 10.4 mph - N/A   Clear
7:55 AM 17.6 °F 6.4 °F 10.4 °F 73% 30.02 in 10.0 mi WSW 9.2 mph - N/A   Clear
8:15 AM 17.6 °F 4.3 °F 10.4 °F 73% 30.02 in 10.0 mi WSW 12.7 mph - N/A   Clear
8:35 AM 17.6 °F 5.7 °F 10.4 °F 73% 30.02 in 10.0 mi WSW 10.4 mph - N/A   Clear
8:55 AM 17.6 °F 7.3 °F 10.4 °F 73% 30.03 in 10.0 mi WSW 8.1 mph - N/A   Clear
9:15 AM 17.6 °F 7.3 °F 12.2 °F 79% 30.04 in 10.0 mi WSW 8.1 mph - N/A   Clear
9:35 AM 19.4 °F 8.6 °F 12.2 °F 74% 30.05 in 10.0 mi West 9.2 mph - N/A   Clear
9:55 AM 19.4 °F 6.6 °F 12.2 °F 74% 30.06 in 10.0 mi West 12.7 mph - N/A   Scattered Clouds
10:15 AM 19.4 °F 6.6 °F 12.2 °F 74% 30.06 in 10.0 mi West 12.7 mph - N/A   Scattered Clouds
10:35 AM 19.4 °F 9.5 °F 12.2 °F 74% 30.07 in 10.0 mi West 8.1 mph - N/A   Scattered Clouds
10:55 AM 21.2 °F 12.6 °F 12.2 °F 68% 30.07 in 10.0 mi West 6.9 mph - N/A   Scattered Clouds
11:15 AM 21.2 °F 10.9 °F 14.0 °F 74% 30.07 in 10.0 mi West 9.2 mph - N/A   Mostly Cloudy
11:35 AM 21.2 °F 11.7 °F 15.8 °F 80% 30.06 in 10.0 mi West 8.1 mph - N/A   Overcast
11:55 AM 23.0 °F 13.9 °F 15.8 °F 74% 30.06 in 10.0 mi West 8.1 mph - N/A   Mostly Cloudy
12:15 PM 23.0 °F 13.1 °F 15.8 °F 74% 30.07 in 10.0 mi West 9.2 mph - N/A   Mostly Cloudy
12:35 PM 23.0 °F 13.9 °F 15.8 °F 74% 30.06 in 10.0 mi WNW 8.1 mph - N/A   Scattered Clouds
12:55 PM 23.0 °F 17.0 °F 15.8 °F 74% 30.06 in 10.0 mi West 4.6 mph - N/A   Scattered Clouds
1:15 PM 24.8 °F 17.9 °F 15.8 °F 69% 30.06 in 10.0 mi NW 5.8 mph - N/A   Mostly Cloudy
1:35 PM 24.8 °F 19.1 °F 17.6 °F 74% 30.06 in 10.0 mi WNW 4.6 mph - N/A   Mostly Cloudy
1:55 PM 24.8 °F 19.1 °F 17.6 °F 74% 30.07 in 10.0 mi WNW 4.6 mph - N/A   Scattered Clouds
2:15 PM 24.8 °F 16.9 °F 17.6 °F 74% 30.08 in 10.0 mi West 6.9 mph - N/A   Scattered Clouds
2:35 PM 24.8 °F 17.9 °F 17.6 °F 74% 30.09 in 10.0 mi WNW 5.8 mph - N/A   Clear
2:55 PM 24.8 °F 16.9 °F 17.6 °F 74% 30.09 in 10.0 mi WNW 6.9 mph - N/A   Clear
3:15 PM 24.8 °F 17.9 °F 17.6 °F 74% 30.09 in 10.0 mi WNW 5.8 mph - N/A   Scattered Clouds
3:55 PM 24.8 °F 16.9 °F 17.6 °F 74% 30.11 in 10.0 mi West 6.9 mph - N/A   Mostly Cloudy
4:15 PM 24.8 °F 17.9 °F 17.6 °F 74% 30.11 in 10.0 mi West 5.8 mph - N/A   Clear
4:35 PM 23.0 °F 18.4 °F 17.6 °F 80% 30.12 in 10.0 mi West 3.5 mph - N/A   Scattered Clouds
4:55 PM 23.0 °F 18.4 °F 17.6 °F 80% 30.13 in 10.0 mi West 3.5 mph - N/A   Clear
5:15 PM 23.0 °F 17.0 °F 17.6 °F 80% 30.13 in 10.0 mi WNW 4.6 mph - N/A   Mostly Cloudy
5:35 PM 23.0 °F 18.4 °F 17.6 °F 80% 30.13 in 10.0 mi West 3.5 mph - N/A   Overcast
5:55 PM 23.0 °F 18.4 °F 17.6 °F 80% 30.13 in 10.0 mi NW 3.5 mph - N/A   Mostly Cloudy
6:15 PM 19.4 °F - 15.8 °F 86% 30.14 in 10.0 mi Calm Calm - N/A   Scattered Clouds
6:35 PM 19.4 °F - 15.8 °F 86% 30.14 in 10.0 mi Calm Calm - N/A   Scattered Clouds
6:55 PM 17.6 °F 12.3 °F 12.2 °F 79% 30.15 in 10.0 mi West 3.5 mph - N/A   Scattered Clouds
7:15 PM 15.8 °F - 10.4 °F 79% 30.15 in 10.0 mi Calm Calm - N/A   Scattered Clouds
7:35 PM 15.8 °F - 12.2 °F 86% 30.15 in 10.0 mi Calm Calm - N/A   Scattered Clouds
7:55 PM 15.8 °F 10.2 °F 12.2 °F 86% 30.14 in 10.0 mi WSW 3.5 mph - N/A   Overcast
8:15 PM 17.6 °F - 12.2 °F 79% 30.13 in 10.0 mi Calm Calm - N/A   Overcast
8:35 PM 19.4 °F - 14.0 °F 80% 30.14 in 10.0 mi Calm Calm - N/A   Overcast
8:55 PM 19.4 °F 11.5 °F 15.8 °F 86% 30.14 in 10.0 mi WSW 5.8 mph - N/A   Overcast
9:15 PM 19.4 °F 10.4 °F 15.8 °F 86% 30.15 in 10.0 mi West 6.9 mph - N/A   Overcast
9:35 PM 21.2 °F 13.6 °F 15.8 °F 80% 30.14 in 10.0 mi West 5.8 mph - N/A   Overcast
9:55 PM 21.2 °F 12.6 °F 15.8 °F 80% 30.15 in 10.0 mi West 6.9 mph - N/A   Overcast
10:15 PM 21.2 °F 12.6 °F 17.6 °F 86% 30.16 in 10.0 mi West 6.9 mph - N/A   Overcast
10:35 PM 23.0 °F 12.4 °F 17.6 °F 80% 30.16 in 10.0 mi West 10.4 mph - N/A   Overcast
10:55 PM 23.0 °F 12.4 °F 17.6 °F 80% 30.16 in 10.0 mi West 10.4 mph - N/A   Overcast
11:15 PM 23.0 °F 13.1 °F 17.6 °F 80% 30.17 in 10.0 mi West 9.2 mph - N/A   Overcast
11:35 PM 24.8 °F 15.3 °F 19.4 °F 80% 30.17 in 10.0 mi WSW 9.2 mph - N/A   Overcast